DE2MSF Weather Reports


time (UTC)temp
C
wind
direction
speed
KPH
gust
KPH
rain 1hr
cm
rain 24hr
cm
rain mn
cm
humidity
%
barometer
mb
20260506124530 8 25 3.2 11.3 0.00 1.52 1.47 96 1009.0
20260506123030 8 7 4.8 17.7 0.00 1.52 1.47 96 1008.9
20260506121531 8 36 4.8 12.9 0.03 1.52 1.47 96 1008.9
20260506120029 8 18 4.8 12.9 0.03 1.52 1.47 96 1008.7
20260506113029 8 16 4.8 14.5 0.03 1.55 1.47 96 1008.9
20260506111530 8 37 4.8 12.9 0.03 1.52 1.45 96 1008.5
20260506110030 8 21 4.8 17.7 0.03 1.52 1.45 96 1008.8
20260506104529 7 23 6.4 20.9 0.03 1.52 1.45 96 1008.6
20260506103029 7 36 4.8 17.7 0.03 1.52 1.45 97 1008.5
20260506101530 7 16 4.8 14.5 0.03 1.52 1.42 97 1008.4
20260506100029 7 358 6.4 17.7 0.03 1.52 1.42 97 1008.4
20260506094530 7 21 6.4 14.5 0.03 1.52 1.42 97 1008.4
20260506091529 7 10 6.4 17.7 0.03 1.50 1.37 98 1008.2
20260506090029 7 20 6.4 14.5 0.03 1.50 1.37 98 1008.1
20260506084529 7 346 6.4 14.5 0.05 1.50 1.37 98 1008.1
20260506083029 7 10 6.4 17.7 0.03 1.47 1.35 98 1008.0
20260506081529 7 41 6.4 20.9 0.05 1.47 1.35 98 1007.9
20260506073029 7 2 8.0 20.9 0.10 1.45 1.32 98 1007.8
20260506071530 7 4 6.4 17.7 0.10 1.42 1.30 98 1007.6
20260506044531 8 1 4.8 12.9 0.20 1.30 1.04 99 1006.9
20260506043029 8 332 4.8 17.7 0.18 1.27 0.99 99 1007.1
20260506041529 8 353 4.8 14.5 0.18 1.27 0.97 99 1006.9
20260506040028 8 6 3.2 11.3 0.15 1.19 0.89 99 1007.1
20260506034530 8 5 3.2 11.3 0.13 1.17 0.84 99 1007.0
20260506033028 8 11 4.8 12.9 0.15 1.14 0.81 99 1007.2
20260506030028 8 22 4.8 14.5 0.20 1.09 0.76 99 1007.4
20260506024528 8 11 4.8 9.7 0.23 1.04 0.71 99 1007.4
20260506023028 8 2 6.4 14.5 0.23 0.99 0.66 99 1007.4
20260506021529 8 18 6.4 14.5 0.23 0.97 0.64 99 1007.6
20260506020027 8 29 6.4 14.5 0.20 0.86 0.53 99 1007.6
20260506014528 8 359 6.4 17.7 0.18 0.81 0.48 99 1007.8
20260506013028 8 7 6.4 17.7 0.15 0.76 0.43 99 1007.8
20260506011529 8 9 4.8 14.5 0.13 0.69 0.36 99 1007.7
20260506004527 8 19 6.4 14.5 0.15 0.64 0.30 99 1008.0
20260506003027 8 6 4.8 14.5 0.15 0.61 0.28 99 1008.1
20260506001528 8 7 4.8 11.3 0.15 0.61 0.23 99 1008.3
20260506000027 8 17 4.8 12.9 0.18 0.56 0.20 99 1008.2
20260505234528 8 354 4.8 12.9 0.15 0.53 0.15 99 1008.4
20260505233026 8 357 4.8 17.7 0.13 0.53 0.13 99 1008.6
20260505231527 9 15 4.8 17.7 0.10 0.53 0.10 98 1008.7
20260505224527 9 12 4.8 12.9 0.00 0.51 0.00 97 1008.9
20260505223026 9 1 6.4 17.7 0.00 0.51 0.00 97 1009.0
20260505221527 9 13 4.8 14.5 0.00 0.51 0.00 97 1009.1
20260505220026 9 5 8.0 17.7 0.00 0.51 0.00 96 1009.1
20260505214526 9 16 6.4 12.9 0.00 0.51 0.51 96 1009.2
20260505213026 9 19 6.4 17.7 0.00 0.51 0.51 97 1009.3
20260505210026 10 18 6.4 17.7 0.03 0.51 0.51 97 1009.5
20260505204526 10 13 4.8 11.3 0.05 0.51 0.51 97 1009.3
20260505203026 10 15 3.2 12.9 0.05 0.51 0.51 97 1009.5
20260505200026 10 3 3.2 6.4 0.03 0.48 0.48 96 1009.6
20260505194526 10 3 3.2 9.7 0.00 0.46 0.46 95 1009.4
20260505193026 10 38 3.2 9.7 0.00 0.46 0.46 93 1009.6
20260505191526 10 20 3.2 9.7 0.00 0.48 0.46 90 1009.5
20260505180026 10 19 6.4 17.7 0.00 1.02 0.46 90 1009.3
20260505174526 10 11 4.8 11.3 0.00 1.09 0.46 91 1009.4
20260505173027 10 8 6.4 14.5 0.00 1.27 0.46 91 1009.3
20260505171526 10 358 4.8 12.9 0.00 1.30 0.46 91 1009.2
20260505170025 10 357 4.8 12.9 0.00 1.30 0.46 92 1009.6
20260505164525 10 16 6.4 14.5 0.00 1.30 0.46 92 1009.3
20260505163025 10 10 6.4 17.7 0.00 1.30 0.46 93 1009.6
20260505161527 10 8 6.4 17.7 0.00 1.30 0.46 93 1009.5
20260505151525 10 8 6.4 17.7 0.00 1.30 0.46 94 1010.1